[Iaude] MPEC L08: 2022 KW6 [a=1.20,e=0.09,i=6.0,H=24.9]

mpec at marsden.cfa.harvard.edu mpec at marsden.cfa.harvard.edu
Thu Jun 2 06:56:15 EDT 2022


M.P.E.C. 2022-L08                                  Issued 2022 June 2, 10:54 UT

     The Minor Planet Electronic Circulars contain information on unusual
         minor planets and routine data on comets.  They are published
    on behalf of Division F of the International Astronomical Union by the
          Minor Planet Center, Smithsonian Astrophysical Observatory,
                          Cambridge, MA 02138, U.S.A.

             Prepared using the Tamkin Foundation Computer Network

                              MPC at CFA.HARVARD.EDU
            URL https://www.minorplanetcenter.net/    ISSN 1523-6714

                                    2022 KW6                                    


Observations:
     K22K06W* C2022 05 30.40010316 07 31.614-11 01 05.64         21.56wUEL008F52
     K22K06W  C2022 05 30.41225016 07 30.887-11 00 25.67         21.07wUEL008F52
     K22K06W  C2022 05 30.42445016 07 30.144-10 59 45.20         21.14wUEL008F52
     K22K06W  C2022 05 30.43661016 07 29.383-10 59 05.06         21.11wUEL008F52
     K22K06W  C2022 05 30.55018616 07 22.911-10 52 45.55         20.74GVEL008F52
     K22K06W  C2022 05 30.55102016 07 22.872-10 52 42.54         20.98GVEL008F52
     K22K06W 2C2022 05 30.94114016 07 16.112-10 31 22.12         20.9 GVEL008J04
     K22K06W 1C2022 05 30.98834 16 07 11.62 -10 29 04.9          21.0 VXEL008033
     K22K06W 1C2022 05 30.99062 16 07 11.47 -10 28 57.5          21.4 VXEL008033
     K22K06W 1C2022 05 30.99289 16 07 11.36 -10 28 50.4          21.5 VXEL008033
     K22K06W  C2022 05 31.27157516 07 04.337-10 13 13.11         21.1 GVEL008654
     K22K06W  C2022 05 31.33806816 07 00.542-10 09 32.77         21.0 GVEL008654
     K22K06W  C2022 05 31.40161016 06 57.022-10 05 59.90         21.1 GVEL008654
     K22K06W  C2022 06 01.34044916 06 29.298-09 13 59.00         21.0 GVEL008654
     K22K06W  C2022 06 01.36336316 06 28.044-09 12 42.39         21.0 GVEL008654
     K22K06W  C2022 06 01.38731916 06 26.749-09 11 21.87         21.3 GVEL008654
     K22K06W 1C2022 06 01.99353 16 06 09.47 -08 37 54.9          21.6 VXEL008033
     K22K06W 1C2022 06 01.99601 16 06 09.35 -08 37 47.5          21.6 VXEL008033
     K22K06W 1C2022 06 01.99849 16 06 09.24 -08 37 38.5          21.8 VXEL008033

Observer details:
033 Karl Schwarzschild Observatory, Tautenburg.  Observers S. Melnikov, C.
    Hoegner, U. Laux, F. Ludwig, B. Stecklum.  Measurer B. Stecklum.  1.34-m
    f/3 Schmidt + CCD.
654 Table Mountain Observatory, Wrightwood-PHMC.  Observers N. Evans, P. Choi,
    N. Saini, C. Zhai, R. Trahan, M. Shao.  1.0-m Reflector + CCD.
F52 Pan-STARRS 2, Haleakala.  Observers J. Bulger, T. Lowe, A. Schultz, I.
    Smith, K. Chambers, T. Dukes.  Measurers K. Chambers, S. Chastel, T. de
    Boer, J. Fairlamb, H. Gao, M. Huber, C.-C. Lin, E. Magnier, Y.
    Ramanjooloo, R. Wainscoat, R. Weryk.  1.8-m Ritchey-Chretien + CCD.
J04 ESA Optical Ground Station, Tenerife.  Observers P. Ruiz, M. Micheli, D.
    Fohring, L. Conversi, D. Koschny.  Measurers M. Micheli, R. Kresken, A.
    Knofel, M. Busch, E. Schwab.  1.0-m f/4.4 reflector + CCD.

Orbital elements:
2022 KW6                                                 Earth MOID = 0.1080 AU
Epoch 2022 Jan. 21.0 TT = JDT 2459600.5                 Veres                   
M 212.87448              (2000.0)            P               Q                  
n   0.75171111     Peri.   68.56095     +0.59165513     +0.80127968             
a   1.1979409      Node   238.02292     -0.77302031     +0.53256552             
e   0.0923907      Incl.    6.01270     -0.22887511     +0.27262583             
P   1.31           H   24.93          G   0.15           U   8                  
Residuals in seconds of arc
220530 F52  0.1-  0.0     220530 033  0.3+  0.2+    220601 654  0.2+  0.1-
220530 F52  0.1+  0.1-    220530 033  0.2-  0.0     220601 654  0.1+  0.1-
220530 F52  0.1+  0.1+    220530 033  0.2-  0.4-    220601 033  0.1-  0.7+
220530 F52  0.2-  0.0     220531 654  0.1+  0.2+    220601 033  0.1-  0.2-
220530 F52  0.3+  0.1-    220531 654  0.1-  0.1-    220601 033  0.0   0.5+
220530 F52  0.3+  0.1+    220531 654  0.4-  0.2+
220530 J04  0.1+  0.2-    220601 654  0.0   0.0

Ephemeris:
2022 KW6                 a,e,i = 1.20, 0.09, 6                   q = 1.0873
Date    TT    R. A. (2000) Decl.     Delta      r    Elong.  Phase     V
2022 05 03    16 14 35.6 -29 45 18   0.1780  1.1703   153.9    22.3    22.6
...
2022 05 18    16 13 36.2 -21 24 27   0.1393  1.1493   171.4     7.6    21.5
...
2022 05 26    16 09 53.8 -14 57 43   0.1263  1.1386   173.9     5.4    21.2
...
2022 06 01    16 06 40.7 -09 32 05   0.1203  1.1311   165.9    12.6    21.3
2022 06 02    16 06 10.3 -08 36 34   0.1196  1.1298   164.4    13.9    21.4
2022 06 03    16 05 41.0 -07 41 00   0.1190  1.1286   163.0    15.3    21.4
...
2022 06 09    16 03 20.1 -02 12 53   0.1171  1.1216   154.2    23.2    21.6
...
2022 06 17    16 02 24.8 +04 24 31   0.1183  1.1131   143.4    33.0    21.9
...
2022 07 02    16 09 15.9 +13 20 39   0.1283  1.0999   127.7    47.0    22.5

M. P. C. Staff               (C) Copyright 2022 MPC           M.P.E.C. 2022-L08




More information about the Iaude mailing list